This is the latest recevied weather packets stored in our database for station/object WB5HZM-3. If no packets are shown the sender has not sent any weather packets the latest 10 day(s).
| Time | Temp. | Humidity | Pressure | Rain* | Wind** | Luminosity | Snow |
|---|---|---|---|---|---|---|---|
| 1777929797 | 27.22° C | 55% | 1012.3 hPa | 0 mm | - | - | - |
| 1777929193 | 27.22° C | 55% | 1012.7 hPa | 0 mm | - | - | - |
| 1777928588 | 27.22° C | 55% | 1012.8 hPa | 0 mm | - | - | - |
| 1777928007 | 27.22° C | 54% | 1012.9 hPa | 0 mm | - | - | - |
| 1777927403 | 27.78° C | 53% | 1013.1 hPa | 0 mm | - | - | - |
| 1777926800 | 27.78° C | 53% | 1013.2 hPa | 0 mm | - | - | - |
| 1777926200 | 27.22° C | 54% | 1013.3 hPa | 0 mm | - | - | - |
| 1777925597 | 27.22° C | 53% | 1013.8 hPa | 0 mm | - | - | - |
| 1777924993 | 27.22° C | 53% | 1013.9 hPa | 0 mm | - | - | - |
| 1777924409 | 27.78° C | 51% | 1013.9 hPa | 0 mm | - | - | - |
| 1777923809 | 27.78° C | 50% | 1014.1 hPa | 0 mm | - | - | - |
| 1777923203 | 27.22° C | 51% | 1014.1 hPa | 0 mm | - | - | - |
| 1777922600 | 27.22° C | 50% | 1014.3 hPa | 0 mm | - | - | - |
| 1777922000 | 27.22° C | 51% | 1014.5 hPa | 0 mm | - | - | - |
| 1777921398 | 27.22° C | 52% | 1014.5 hPa | 0 mm | - | - | - |
| 1777920813 | 26.67° C | 52% | 1014.7 hPa | 0 mm | - | - | - |
| 1777920207 | 26.67° C | 52% | 1014.8 hPa | 0 mm | - | - | - |
| 1777919606 | 26.67° C | 53% | 1014.9 hPa | 0 mm | - | - | - |
| 1777919000 | 26.11° C | 51% | 1015 hPa | 0 mm | - | - | - |
| 1777918415 | 26.11° C | 54% | 1015.3 hPa | 0 mm | - | - | - |
| 1777917814 | 26.11° C | 54% | 1015.4 hPa | 0 mm | - | - | - |
| 1777917209 | 26.11° C | 53% | 1015.4 hPa | 0 mm | - | - | - |
| 1777916603 | 26.11° C | 55% | 1015.6 hPa | 0 mm | - | - | - |
| 1777916001 | 25.56° C | 55% | 1015.8 hPa | 0 mm | - | - | - |
| 1777915415 | 25.56° C | 54% | 1015.9 hPa | 0 mm | - | - | - |
* Rain latest hour (hover to see other rain measurements)
** Current wind speed in m/s (hover to see current wind gust speed)